Regional Weather Roundup
Issued by NWS

Home | Current Version | Previous Version | Graphics & Text | Print | Product List | Glossary On
Versions: 1 2 3 4 5 6 7 8 9 10 11 12 13 14 15 16 17 18 19 20 21 22 23 24 25 26 27 28 29 30 31 32 33 34 35 36 37 38 39 40 41 42 43 44 45 46 47 48 49 50
000
ASUS43 KMPX 162110
RWRMN
WEATHER ROUNDUP FOR MINNESOTA
NATIONAL WEATHER SERVICE TWIN CITIES/CHANHASSEN MN
400 PM CDT WED APR 16 2014


NOTE: "FAIR" INDICATES FEW OR NO CLOUDS BELOW 12,000 FEET WITH NO
SIGNIFICANT WEATHER AND/OR OBSTRUCTIONS TO VISIBILITY. N/A MEANS
CURRENT SKY AND/OR WEATHER CONDITIONS ARE NOT AVAILABLE.

MNZ060>063-068>070-162200-
   Twin Cities Metro

CITY           SKY/WX    TMP DP  RH WIND       PRES   REMARKS
TWIN CITIES    LGT SNOW  34  31  88 NE15G23   29.89S FOG     WCI  24
ST PAUL        LGT SNOW  36  28  73 VRB5      29.91S
CRYSTAL        SNOW      32  30  92 NE13      29.90F VSB 1/4 WCI  22
BLAINE         LGT SNOW  34  34 100 NE12G18   29.92  VSB 1   WCI  25
EDEN PRAIRIE   LGT SNOW  34  31  88 NE15G22   29.85F FOG     WCI  24
LAKEVILLE      LGT RAIN  36  30  80 NE10      29.85S
SOUTH ST PAUL  CLOUDY    41  30  65 N9G16     29.88F
LAKE ELMO      CLOUDY    36  30  80 NE16G23   29.90F
$$
MNZ001>005-007-008-013>017-022>024-027-028-162200-
   Northwest Minnesota

CITY           SKY/WX    TMP DP  RH WIND       PRES   REMARKS
BEMIDJI        CLOUDY    35  16  44 E14G22    30.11R WCI  26
HALLOCK        CLOUDY    37   5  25 NE15      30.22R
ROSEAU         SUNNY     36   7  30 NE16G22   30.21S
WARROAD        SUNNY     34  10  37 NE13G18   30.22S WCI  25
THIEF RVR FALL SUNNY     39   7  26 NE17      30.15S
CROOKSTON      CLOUDY    41  10  28 NE14G23   30.15S
FOSSTON        CLOUDY    39  14  35 NE16      30.11S
DETROIT LAKES  CLOUDY    32  23  69 E14G28    30.07R WCI  22
MOORHEAD       PTSUNNY   36  27  69 NE18      30.10R
PARK RAPIDS    CLOUDY    29  20  69 NE22G30   30.06S WCI  15
$$
MNZ006-009>011-018-025>026-162200-
   North Central Minnesota

CITY           SKY/WX    TMP DP  RH WIND       PRES   REMARKS
BAUDETTE       MOSUNNY   37   6  27 NE15      30.19R
FLAG ISLAND    SUNNY     32   9  37 N15       30.22S WCI  22
INTL FALLS     PTSUNNY   35   3  26 NE12      30.19R WCI  27
WASKISH        CLOUDY    39   9  28 NE12G21   30.15R
BIG FORK       CLOUDY    37  10  32 E12G17    30.13S
LONGVILLE      LGT SNOW  28  23  80 NE9       30.09R WCI  20
GRAND RAPIDS   CLOUDY    27  21  80 NE8G18    30.11S WCI  18
CRANE LAKE     CLOUDY    37   7  28 NE8       30.20R
ORR            CLOUDY    36   1  23 E7        30.14R
COOK           CLOUDY    30  12  47 E8        30.16R WCI  23
$$
MNZ012-019>021-037-162200-
   Northeast Minnesota

CITY           SKY/WX    TMP DP  RH WIND       PRES   REMARKS
DULUTH         SNOW      26  22  84 E22G28    30.09F VSB 1/2 WCI  12
ELY            CLOUDY    28  12  50 E15       30.17R WCI  17
HIBBING        LGT SNOW  28  22  78 NE14      30.13F VSB 1   WCI  17
EVELETH        LGT SNOW  28  23  80 NE10G17   30.15F WCI  19
DULUTH HARBOR  SNOW      28  27  93 NE26      30.14S VSB 1/2 WCI  13
TWO HARBORS    SNOW      27  21  80 NE13G21   30.14R VSB 1/2 WCI  16
SILVER BAY     LGT SNOW  25  25 100 NE9G16    30.17R VSB 3/4 WCI  15
GRAND MARAIS     N/A     30  18  60 E16       30.26S WCI  19
G MARAIS ARPRT CLOUDY    25  10  54 E9        30.19S WCI  15
$$
MNZ029>031-032-039>041-046>048-054>057-064-162200-
   West Central Minnesota

CITY           SKY/WX    TMP DP  RH WIND       PRES   REMARKS
FERGUS FALLS   CLOUDY    32  21  64 NE21G29   30.02R WCI  20
WHEATON        CLOUDY    34  28  80 NE15G25   30.04R WCI  24
MORRIS         MIX PCPN  30  27  86 NE18G29   29.96R WCI  18
ALEXANDRIA     LGT SNOW  29  25  85 NE21G28   29.97R FOG     WCI  16
ELBOW LAKE     FLURRIES  31  26  82 NE15G21   30.00R WCI  20
WADENA         LGT SNOW  28  25  86 NE18G28   30.03R WCI  16
GLENWOOD       LGT SNOW  28  27  93 NE25      29.95R VSB 1   WCI  14
APPLETON       LGT SNOW  32  28  86 NE23      29.94R VSB 1   WCI  19
BENSON         CLOUDY    30  27  86 E16G23    29.94R WCI  19
ORTONVILLE     LGT SNOW  30  27  86 NE23      29.97R WCI  17
MADISON        LGT SNOW  34  30  86 NE18G25   29.93R VSB 3/4 WCI  23
WILLMAR        LGT SNOW  30  27  86 NE21G30   29.90R WCI  17
$$
MNZ033>034-036-042>043-049>051-058-059-162200-
   Central Minnesota

CITY           SKY/WX    TMP DP  RH WIND       PRES   REMARKS
ST CLOUD       SNOW      29  26  89 NE14      29.94S VSB 1/4 WCI  18
SAUK CENTRE    LGT SNOW  28  26  89 NE14G26   29.96R WCI  17
PAYNESVILLE    LGT SNOW  28  27  93 NE14G25   29.93R VSB 3/4 WCI  17
AITKIN         LGT SNOW  30  25  80 NE14      30.04S WCI  20
PINE RIVER     LGT SNOW  27  25  93 NE12G23   30.09S VSB 1   WCI  16
BRAINERD       LGT SNOW  32  24  72 NE16      30.04R VSB 3/4 WCI  21
STAPLES        LGT SNOW  28  25  86 NE10G17   30.02S WCI  19
LONG PRAIRIE   CLOUDY    28  25  86 NE14G21   29.98R WCI  17
LITTLE FALLS   SNOW      30  27  86 NE8       29.99S VSB 1/2 WCI  23
LITCHFIELD     SNOW      30  30 100 NE14G21   29.90R VSB 1/2 WCI  20
BUFFALO        SNOW      31  29  92 NE15G22   29.91F VSB 1/2 WCI  20
MAPLE LAKE     LGT SNOW  32  31  96 NE13G18   29.92S VSB 3/4 WCI  22
$$
MNZ037-044-045-052-053-162200-
   East Central Minnesota

CITY           SKY/WX    TMP DP  RH WIND       PRES   REMARKS
PRINCETON      SNOW      30  28  93 NE12G18   29.95F VSB 1/2 WCI  21
MORA           SNOW      30  27  86 NE7       30.02R VSB 1/2 WCI  23
CAMBRIDGE      SNOW      30  25  80 NE9       29.94F VSB 1/2 WCI  22
RUSH CITY      MIX PCPN  30  28  92 NE14G21   29.98S WCI  19
MOOSE LAKE     LGT SNOW  28  25  86 NE12G21   30.04S VSB 3/4 WCI  18
HINCKLEY       SNOW      30  28  93 NE12G17   30.02S VSB 1/2 WCI  21
CLOQUET        SNOW      27  25  93 E17G24    30.07F VSB 1/2 WCI  14
MCGREGOR       CLOUDY    28  27  93 NE14G20   30.07R VSB 3/4 WCI  17
$$
MNZ071>073-080-081-089-090-097-098-162200-
   Southwest Minnesota

CITY           SKY/WX    TMP DP  RH WIND       PRES   REMARKS
MONTEVIDEO     SNOW      30  30 100 E17       29.92R VSB 1/4 WCI  18
GRANITE FALLS  LGT SNOW  30  28  90 N20G25    29.90R WCI  18
CANBY          SNOW      30  29  96 N13       29.92R VSB 1/4 WCI  20
MARSHALL       CLOUDY    30  27  86 N18G25    29.84S VSB 1   WCI  18
REDWOOD FALLS  LGT SNOW  33  31  92 NE9       29.85R VSB 3/4 WCI  25
OLIVIA         LGT SNOW  32  30  93 NE14      29.86R VSB 1   WCI  22
PIPESTONE      LGT SNOW  32  30  93 NE18G24   29.77R VSB 3/4 WCI  20
WINDOM         CLOUDY    39  37  93 N15       29.76R
WORTHINGTON    CLOUDY    39  34  81 N14G20    29.76R
JACKSON        CLOUDY    50  32  50 N12G17    29.75R
TRACY          LGT SNOW  33  32  96 N10       29.82R VSB 3/4 WCI  25
SLAYTON        RAIN      34  34 100 N16       29.79R WCI  24
$$
MNZ065>067-074>077-082>085-091>093-162200-
   South Central Minnesota

CITY           SKY/WX    TMP DP  RH WIND       PRES   REMARKS
MANKATO        CLOUDY    52  36  54 SW3       29.76F
NEW ULM        LGT RAIN  36  36 100 N15       29.80F
ST JAMES       CLOUDY    43  39  87 NW20      29.78R
FAIRMONT       CLOUDY    55  28  35 S15G28    29.74F
GLENCOE        LGT SNOW  33  31  90 NE8       29.85S WCI  27
FARIBAULT      RAIN      52  36  54 NE7       29.80F
OWATONNA       CLOUDY    54  36  50 SE15G22   29.78S
WASECA         CLOUDY    54  36  50 S18G25    29.78F
ALBERT LEA     CLOUDY    55  30  38 S16G26    29.76F
$$
MNZ078>079-086>088-094>096-162200-
   Southeast Minnesota

CITY           SKY/WX    TMP DP  RH WIND       PRES   REMARKS
ROCHESTER      CLOUDY    50  35  56 SE22G30   29.81S
RED WING       CLOUDY    52  30  43 SE15G21   29.83F
STANTON        RAIN      50  37  59 SE15G26   29.80F
DODGE CENTER   CLOUDY    54  36  50 S18G24    29.81F
WINONA         CLOUDY    54  32  43 SE18G25   29.88F
AUSTIN         CLOUDY    52  34  50 S14G22    29.80R
PRESTON        CLOUDY    52  32  47 S18G31    29.84S
$$
ABBREVIATIONS USED IN REMARKS
   TC - TEMPERATURES IN CELSIUS
  WCI - WIND CHILL INDEX
   HX - HEAT INDEX
  VSB - VISIBILITY
$$



USA.gov is the U.S. government's official web portal to all federal, state and local government web resources and services.